TimeWET,TemperatureF,Dew PointF,Humidity,Sea Level PressureIn,VisibilityMPH,Wind Direction,Wind SpeedMPH,Gust SpeedMPH,PrecipitationIn,Events,Conditions,WindDirDegrees,DateUTC
12:00 AM,49,38,55,30.06,4,East,3.5,,,,,100,2013-12-03 00:00:00
12:00 AM,48.2,37.4,66,30.04,4.3,East,3.5,-,N/A,,Unknown,90,2013-12-03 00:00:00
12:30 AM,48.2,37.4,66,30.04,5.6,ESE,2.3,-,N/A,,Unknown,120,2013-12-03 00:30:00
1:00 AM,48.2,37.4,66,30.04,5.6,Calm,Calm,-,N/A,,Unknown,0,2013-12-03 01:00:00
1:30 AM,48.2,37.4,66,30.04,5.6,ENE,1.2,-,N/A,,Unknown,70,2013-12-03 01:30:00
2:00 AM,46.4,37.4,71,30.04,5.6,ENE,2.3,-,N/A,,Unknown,60,2013-12-03 02:00:00
2:30 AM,44.6,37.4,76,30.04,-9999.0,East,4.6,-,N/A,,Clear,90,2013-12-03 02:30:00
3:00 AM,45,37,66,30.07,6,East,4.6,,,,,90,2013-12-03 03:00:00
3:00 AM,44.6,37.4,76,30.04,5.6,East,3.5,-,N/A,,Unknown,90,2013-12-03 03:00:00
3:30 AM,44.6,37.4,76,30.04,5.6,East,4.6,-,N/A,,Unknown,90,2013-12-03 03:30:00
4:00 AM,44.6,37.4,76,30.04,-9999.0,East,3.5,-,N/A,,Clear,90,2013-12-03 04:00:00
4:30 AM,42.8,37.4,81,30.04,-9999.0,East,3.5,-,N/A,,Clear,100,2013-12-03 04:30:00
5:00 AM,42.8,35.6,76,30.04,-9999.0,East,3.5,-,N/A,,Clear,80,2013-12-03 05:00:00
5:30 AM,42.8,37.4,81,30.04,-9999.0,ENE,2.3,-,N/A,,Clear,70,2013-12-03 05:30:00
6:00 AM,44,37,67,30.08,6,ESE,3.5,,,,,110,2013-12-03 06:00:00
6:00 AM,44.6,37.4,76,30.04,-9999.0,East,4.6,-,N/A,,Clear,100,2013-12-03 06:00:00
6:30 AM,42.8,35.6,76,30.04,-9999.0,East,4.6,-,N/A,,Clear,80,2013-12-03 06:30:00
7:00 AM,41.0,35.6,81,30.06,-9999.0,East,3.5,-,N/A,,Clear,90,2013-12-03 07:00:00
7:30 AM,41.0,35.6,81,30.06,-9999.0,East,5.8,-,N/A,,Clear,90,2013-12-03 07:30:00
8:00 AM,42.8,35.6,76,30.06,-9999.0,ENE,3.5,-,N/A,,Clear,70,2013-12-03 08:00:00
8:30 AM,46.4,37.4,71,30.09,5.6,East,4.6,-,N/A,,Unknown,90,2013-12-03 08:30:00
9:00 AM,49,36,50,30.12,6,ENE,4.6,,,,,70,2013-12-03 09:00:00
9:00 AM,50.0,35.6,58,30.09,5.6,ENE,4.6,-,N/A,,Unknown,70,2013-12-03 09:00:00
9:30 AM,53.6,35.6,51,30.09,5.0,ESE,4.6,-,N/A,,Unknown,110,2013-12-03 09:30:00
10:00 AM,57.2,35.6,44,30.09,-9999.0,ENE,4.6,-,N/A,,Clear,70,2013-12-03 10:00:00
10:30 AM,59.0,35.6,42,30.09,-9999.0,Variable,2.3,-,N/A,,Clear,0,2013-12-03 10:30:00
11:00 AM,60.8,35.6,39,30.09,-9999.0,NNE,3.5,-,N/A,,Clear,20,2013-12-03 11:00:00
11:30 AM,62.6,32.0,32,30.09,-9999.0,NE,4.6,-,N/A,,Clear,50,2013-12-03 11:30:00
12:00 PM,65,33,19,30.05,6,ENE,5.8,,,,Clear,60,2013-12-03 12:00:00
12:00 PM,64.4,30.2,28,30.09,-9999.0,NE,4.6,-,N/A,,Clear,50,2013-12-03 12:00:00
12:30 PM,66.2,33.8,30,30.06,-9999.0,NE,5.8,-,N/A,,Clear,40,2013-12-03 12:30:00
1:00 PM,66.2,32.0,28,30.06,-9999.0,NE,8.1,-,N/A,,Clear,50,2013-12-03 13:00:00
1:30 PM,68.0,32.0,26,30.06,-9999.0,ENE,6.9,-,N/A,,Clear,70,2013-12-03 13:30:00
2:00 PM,69.8,32.0,25,30.04,-9999.0,ENE,9.2,-,N/A,,Clear,60,2013-12-03 14:00:00
2:30 PM,69.8,30.2,23,30.04,6.2,North,5.8,-,N/A,,Partly Cloudy,10,2013-12-03 14:30:00
3:00 PM,71,29,12,30.00,6,NE,5.8,,,,Scattered Clouds,50,2013-12-03 15:00:00
3:00 PM,71.6,28.4,20,30.04,6.2,ENE,4.6,-,N/A,,Partly Cloudy,60,2013-12-03 15:00:00
3:30 PM,69.8,28.4,21,30.04,6.2,NNW,3.5,-,N/A,,Partly Cloudy,340,2013-12-03 15:30:00
4:00 PM,69.8,28.4,21,30.06,6.2,North,3.5,-,N/A,,Scattered Clouds,10,2013-12-03 16:00:00
4:30 PM,69.8,26.6,20,30.06,6.2,Calm,Calm,-,N/A,,Scattered Clouds,0,2013-12-03 16:30:00
5:00 PM,68.0,32.0,26,30.06,6.2,NNE,6.9,-,N/A,,Scattered Clouds,30,2013-12-03 17:00:00
5:30 PM,66.2,30.2,26,30.06,6.2,NE,8.1,-,N/A,,Mostly Cloudy,50,2013-12-03 17:30:00
6:00 PM,65,31,17,30.05,6,NE,6.9,,,,Mostly Cloudy,40,2013-12-03 18:00:00
6:00 PM,66.2,30.2,26,30.06,6.2,NE,6.9,-,N/A,,Mostly Cloudy,40,2013-12-03 18:00:00
6:30 PM,64.4,32.0,30,30.09,6.2,NE,6.9,-,N/A,,Mostly Cloudy,50,2013-12-03 18:30:00
7:00 PM,64.4,30.2,28,30.09,6.2,NE,5.8,-,N/A,,Mostly Cloudy,50,2013-12-03 19:00:00
7:30 PM,62.6,30.2,30,30.09,6.2,ENE,6.9,-,N/A,,Mostly Cloudy,60,2013-12-03 19:30:00
8:00 PM,62.6,30.2,30,30.09,6.2,ENE,6.9,-,N/A,,Mostly Cloudy,60,2013-12-03 20:00:00
8:30 PM,60.8,32.0,34,30.12,6.2,East,4.6,-,N/A,,Mostly Cloudy,90,2013-12-03 20:30:00
9:00 PM,60,33,25,30.10,6,ESE,4.6,,,,Mostly Cloudy,110,2013-12-03 21:00:00
9:00 PM,60.8,33.8,36,30.12,6.2,ESE,4.6,-,N/A,,Mostly Cloudy,110,2013-12-03 21:00:00
9:30 PM,60.8,32.0,34,30.12,6.2,ESE,5.8,-,N/A,,Mostly Cloudy,110,2013-12-03 21:30:00
10:00 PM,59.0,33.8,39,30.12,6.2,ESE,3.5,-,N/A,,Mostly Cloudy,110,2013-12-03 22:00:00
10:30 PM,59.0,33.8,39,30.12,6.2,Variable,1.2,-,N/A,,Mostly Cloudy,0,2013-12-03 22:30:00
11:00 PM,55.4,37.4,51,30.12,6.2,West,4.6,-,N/A,,Mostly Cloudy,260,2013-12-03 23:00:00
11:30 PM,53.6,37.4,54,30.12,6.2,West,4.6,-,N/A,,Mostly Cloudy,260,2013-12-03 23:30:00